Change the Weather History Date:

Sunday, January 27, 2013

  Actual Average (KNYG) Record (KNYG)
Temperature  
Mean Temperature 34 °F -  
Max Temperature 41 °F 40 °F 69 °F (2012)
Min Temperature 28 °F 25 °F 12 °F (2003)
Degree Days  
Heating Degree Days 30    
Moisture  
Dew Point 23 °F    
Average Humidity 64    
Maximum Humidity 84    
Minimum Humidity 46    
Precipitation  
Precipitation 0.00 in - - ()
Sea Level Pressure  
Sea Level Pressure 30.53 in    
Wind  
Wind Speed 3 mph (North)    
Max Wind Speed 9 mph    
Max Gust Speed -    
Visibility 10 miles    
Events      
Averages and records for this station are not official NWS values.
T = Trace of Precipitation, MM = Missing Value Source: NWS Daily Summary

Daily Weather History Graph

Daily Weather History Graph

Search for Another Location

Airport or City:

Trip Planner

Search our weather history database for the weather conditions in past years. The results will help you decide how hot, cold, wet, or windy it might be!

Date:

Astronomy

Jan. 27, 2013 Rise Set
Actual Time 7:18 AM EST 5:27 PM EST
Civil Twilight 6:50 AM EST 5:55 PM EST
Nautical Twilight 6:18 AM EST 6:27 PM EST
Astronomical Twilight 5:47 AM EST 6:58 PM EST
Moon 6:17 PM EST (1/27) 7:11 AM EST (1/27)
Length of Visible Light 11h 04m
Length of Day
10h 08m
Full, 100% of the Moon is Illuminated
Jan 27
Full
Feb 3
Last Quarter
Feb 10
New
Feb 17
First Quarter
Feb 25
Full

Hourly Weather History & Observations

Time (EST) Temp. Windchill Dew Point Humidity Pressure Visibility Wind Dir Wind Speed Gust Speed Precip Events Conditions
12:15 AM 33.8 °F 30.8 °F 26.2 °F 74% 30.45 in 10.0 mi NNW 3.5 mph - N/A   Overcast
12:35 AM 33.6 °F 28.4 °F 26.2 °F 74% 30.45 in 10.0 mi North 5.8 mph - N/A   Overcast
12:55 AM 33.4 °F 30.4 °F 25.7 °F 73% 30.45 in 10.0 mi North 3.5 mph - N/A   Overcast
1:15 AM 33.4 °F 28.1 °F 25.5 °F 73% 30.46 in 10.0 mi North 5.8 mph - N/A   Overcast
1:35 AM 33.3 °F - 25.3 °F 73% 30.46 in 10.0 mi Calm Calm - N/A   Overcast
1:55 AM 33.3 °F 28.9 °F 25.2 °F 72% 30.47 in 10.0 mi North 4.6 mph - N/A   Overcast
2:15 AM 33.3 °F 30.2 °F 24.8 °F 71% 30.48 in 10.0 mi North 3.5 mph - N/A   Overcast
2:35 AM 33.1 °F 30.0 °F 25.0 °F 72% 30.47 in 10.0 mi North 3.5 mph - N/A   Overcast
2:55 AM 33.3 °F 30.2 °F 24.8 °F 71% 30.48 in 10.0 mi North 3.5 mph - N/A   Unknown
3:15 AM 33.1 °F - 24.8 °F 72% 30.49 in 10.0 mi Calm Calm - N/A   Unknown
3:35 AM 32.9 °F - 25.3 °F 74% 30.49 in 10.0 mi Calm Calm - N/A   Overcast
3:55 AM 32.0 °F - 26.6 °F 80% 30.49 in 10.0 mi Calm Calm - N/A   Unknown
4:15 AM 32.9 °F 28.5 °F 25.5 °F 74% 30.48 in 10.0 mi NNE 4.6 mph - N/A   Unknown
4:35 AM 32.5 °F - 25.2 °F 74% 30.48 in 10.0 mi Calm Calm - N/A   Unknown
4:55 AM 31.3 °F - 26.8 °F 83% 30.48 in 10.0 mi Calm Calm - N/A   Unknown
5:15 AM 31.3 °F - 26.4 °F 82% 30.49 in 10.0 mi Calm Calm - N/A   Unknown
5:35 AM 31.5 °F - 26.4 °F 82% 30.50 in 10.0 mi Calm Calm - N/A   Unknown
5:55 AM 32.2 °F 27.7 °F 22.3 °F 67% 30.51 in 10.0 mi North 4.6 mph - N/A   Unknown
6:15 AM 32.4 °F 27.9 °F 20.7 °F 62% 30.52 in 10.0 mi NNW 4.6 mph - N/A   Overcast
6:35 AM 32.4 °F - 20.7 °F 62% 30.53 in 10.0 mi Calm Calm - N/A   Overcast
6:55 AM 32.2 °F 28.9 °F 19.6 °F 60% 30.54 in 10.0 mi North 3.5 mph - N/A   Overcast
7:15 AM 32.0 °F 27.5 °F 19.4 °F 60% 30.55 in 10.0 mi North 4.6 mph - N/A   Overcast
7:35 AM 32.2 °F 26.7 °F 19.0 °F 58% 30.56 in 10.0 mi North 5.8 mph - N/A   Overcast
7:55 AM 32.2 °F 25.0 °F 18.3 °F 57% 30.56 in 10.0 mi North 8.1 mph - N/A   Overcast
8:15 AM 32.2 °F 26.7 °F 18.5 °F 57% 30.57 in 10.0 mi North 5.8 mph - N/A   Overcast
8:35 AM 32.4 °F 29.1 °F 19.0 °F 58% 30.58 in 10.0 mi North 3.5 mph - N/A   Overcast
8:55 AM 32.5 °F 28.1 °F 18.7 °F 57% 30.59 in 10.0 mi North 4.6 mph - N/A   Overcast
9:15 AM 32.9 °F 25.3 °F 18.7 °F 56% 30.59 in 10.0 mi North 9.2 mph - N/A   Overcast
9:35 AM 33.1 °F 26.1 °F 18.0 °F 54% 30.61 in 10.0 mi NNE 8.1 mph - N/A   Overcast
9:55 AM 33.4 °F 29.1 °F 18.5 °F 54% 30.60 in 10.0 mi North 4.6 mph - N/A   Overcast
10:15 AM 34.0 °F 31.0 °F 18.1 °F 52% 30.61 in 10.0 mi NE 3.5 mph - N/A   Overcast
10:35 AM 34.7 °F 31.8 °F 18.0 °F 51% 30.61 in 10.0 mi NE 3.5 mph - N/A   Unknown
10:55 AM 35.2 °F - 18.9 °F 51% 30.61 in 10.0 mi Calm Calm - N/A   Unknown
11:15 AM 35.4 °F - 18.5 °F 50% 30.60 in 10.0 mi Calm Calm - N/A   Unknown
11:35 AM 35.6 °F 32.8 °F 18.0 °F 49% 30.60 in 10.0 mi NW 3.5 mph - N/A   Unknown
11:55 AM 35.6 °F - 17.2 °F 47% 30.59 in 10.0 mi Calm Calm - N/A   Overcast
12:15 PM 36.7 °F - 18.3 °F 47% 30.58 in 10.0 mi Calm Calm - N/A   Overcast
12:35 PM 37.0 °F - 18.7 °F 48% 30.57 in 10.0 mi Calm Calm - N/A   Unknown
12:55 PM 38.1 °F 32.9 °F 19.9 °F 48% 30.56 in 10.0 mi WNW 6.9 mph - N/A   Unknown
1:15 PM 38.1 °F 34.6 °F 19.9 °F 48% 30.55 in 10.0 mi West 4.6 mph - N/A   Unknown
1:35 PM 39.0 °F 35.7 °F 21.2 °F 49% 30.54 in 10.0 mi SSW 4.6 mph - N/A   Unknown
1:55 PM 39.2 °F 37.0 °F 20.8 °F 48% 30.54 in 10.0 mi SW 3.5 mph - N/A   Unknown
2:15 PM 39.4 °F 35.2 °F 21.0 °F 48% 30.52 in 10.0 mi WNW 5.8 mph - N/A   Unknown
2:35 PM 40.3 °F 38.2 °F 21.0 °F 46% 30.52 in 10.0 mi West 3.5 mph - N/A   Clear
2:55 PM 40.6 °F 38.6 °F 21.6 °F 47% 30.52 in 10.0 mi West 3.5 mph - N/A   Clear
3:15 PM 41.4 °F - 21.7 °F 46% 30.51 in 10.0 mi Calm Calm - N/A   Unknown
3:35 PM 39.2 °F - 21.2 °F 49% 30.52 in 10.0 mi Calm Calm - N/A   Unknown
3:55 PM 39.4 °F - 21.4 °F 49% 30.51 in 10.0 mi Calm Calm - N/A   Unknown
4:15 PM 39.4 °F - 21.7 °F 49% 30.52 in 10.0 mi Calm Calm - N/A   Unknown
4:35 PM 39.2 °F 37.0 °F 22.6 °F 52% 30.52 in 10.0 mi SW 3.5 mph - N/A   Unknown
4:55 PM 39.2 °F - 22.1 °F 50% 30.52 in 10.0 mi Calm Calm - N/A   Unknown
5:15 PM 37.9 °F - 22.5 °F 54% 30.52 in 10.0 mi Calm Calm - N/A   Unknown
5:35 PM 36.1 °F 33.5 °F 23.0 °F 59% 30.52 in 10.0 mi SE 3.5 mph - N/A   Clear
5:55 PM 35.1 °F 32.2 °F 23.0 °F 61% 30.52 in 10.0 mi ESE 3.5 mph - N/A   Clear
6:15 PM 32.7 °F 29.6 °F 24.3 °F 71% 30.53 in 10.0 mi SE 3.5 mph - N/A   Clear
6:35 PM 32.0 °F 28.7 °F 25.0 °F 75% 30.53 in 10.0 mi SSE 3.5 mph - N/A   Clear
6:55 PM 32.0 °F - 24.8 °F 75% 30.53 in 10.0 mi Calm Calm - N/A   Clear
7:15 PM 31.3 °F 27.9 °F 24.4 °F 76% 30.52 in 10.0 mi SSE 3.5 mph - N/A   Clear
7:35 PM 31.8 °F - 24.3 °F 74% 30.52 in 10.0 mi Calm Calm - N/A   Clear
7:55 PM 31.5 °F - 23.9 °F 74% 30.52 in 10.0 mi Calm Calm - N/A   Clear
8:15 PM 30.7 °F - 24.1 °F 76% 30.52 in 10.0 mi Calm Calm - N/A   Clear
8:35 PM 31.8 °F 26.2 °F 23.9 °F 73% 30.49 in 10.0 mi South 5.8 mph - N/A   Clear
9:15 PM 30.9 °F - 24.6 °F 77% 30.52 in 10.0 mi Calm Calm - N/A   Clear
9:35 PM 28.9 °F - 24.4 °F 83% 30.52 in 10.0 mi Calm Calm - N/A   Clear
9:55 PM 29.1 °F 25.4 °F 24.8 °F 84% 30.51 in 10.0 mi ESE 3.5 mph - N/A   Clear
10:15 PM 30.9 °F 27.5 °F 25.5 °F 80% 30.50 in 10.0 mi SE 3.5 mph - N/A   Clear
10:35 PM 31.6 °F 28.3 °F 26.4 °F 81% 30.51 in 10.0 mi South 3.5 mph - N/A   Clear
10:55 PM 32.0 °F 28.7 °F 25.7 °F 78% 30.50 in 10.0 mi ESE 3.5 mph - N/A   Clear
11:15 PM 32.0 °F - 25.7 °F 78% 30.50 in 10.0 mi Calm Calm - N/A   Clear
11:35 PM 32.0 °F - 25.7 °F 78% 30.51 in 10.0 mi Calm Calm - N/A   Clear
11:55 PM 32.0 °F - 25.7 °F 78% 30.49 in 10.0 mi Calm Calm - N/A   Clear